Weather History for Aurora, NE

Change the Weather History Date:

Thursday, December 6, 2012

  Actual Average Record
Temperature  
Mean Temperature 42 °F -  
Max Temperature 50 °F 39 °F 61 °F (1963)
Min Temperature 35 °F 19 °F -7 °F (1972)
Degree Days  
Heating Degree Days 22    
Moisture  
Dew Point 18 °F    
Average Humidity 36    
Maximum Humidity 60    
Minimum Humidity 22    
Precipitation  
Precipitation 0.00 in - - ()
Sea Level Pressure  
Sea Level Pressure 29.96 in    
Wind  
Wind Speed 15 mph (NNE)    
Max Wind Speed 25 mph    
Max Gust Speed 31 mph    
Visibility 10 miles    
Events      
Averages and records for this station are not official NWS values.
T = Trace of Precipitation, MM = Missing Value Source: NWS Daily Summary

Daily Weather History Graph

Daily Weather History Graph

Search for Another Location

Airport:

Trip Planner

Search our weather history database for the weather conditions in past years. The results will help you decide how hot, cold, wet, or windy it might be!

Date:

Astronomy

Dec. 06, 2012 Rise Set
Actual Time 7:42 AM CST 5:03 PM CST
Civil Twilight 7:11 AM CST 5:34 PM CST
Nautical Twilight 6:37 AM CST 6:08 PM CST
Astronomical Twilight 6:04 AM CST 6:42 PM CST
Moon No Moon Rise 12:33 PM CST (12/6)
Length of Visible Light 10h 22m
Length of Day
9h 21m
Waning Gibbous, 49% of the Moon is Illuminated
Dec 6
Waning Gibbous
Dec 13
New
Dec 19
First Quarter
Dec 28
Full
Jan 4
Last Quarter

Hourly Weather History & Observations

Time (CST) Temp. Windchill Dew Point Humidity Pressure Visibility Wind Dir Wind Speed Gust Speed Precip Events Conditions
7:35 AM 45.5 °F 39.2 °F 23.0 °F 41% 29.88 in 10.0 mi North 13.8 mph - N/A   Clear
7:55 AM 46.4 °F 39.8 °F 25.7 °F 44% 29.89 in 10.0 mi North 16.1 mph 23.0 mph N/A   Clear
8:15 AM 46.9 °F - 27.3 °F 46% 29.90 in 10.0 mi North 16.1 mph - N/A   Clear
8:35 AM 45.9 °F 39.1 °F 27.5 °F 49% 29.91 in 10.0 mi North 16.1 mph - N/A   Clear
8:55 AM 46.8 °F - 26.4 °F 45% 29.91 in 10.0 mi North 16.1 mph 20.7 mph N/A   Clear
9:15 AM 47.3 °F - 23.9 °F 40% 29.92 in 10.0 mi North 19.6 mph 24.2 mph N/A   Clear
9:35 AM 47.5 °F - 22.1 °F 37% 29.93 in 10.0 mi North 19.6 mph 26.5 mph N/A   Clear
9:55 AM 48.6 °F - 20.8 °F 34% 29.95 in 10.0 mi North 18.4 mph - N/A   Mostly Cloudy
10:15 AM 48.4 °F - 19.2 °F 32% 29.95 in 10.0 mi NNE 18.4 mph 26.5 mph N/A   Overcast
10:35 AM 48.2 °F - 18.3 °F 31% 29.96 in 10.0 mi NNE 20.7 mph 27.6 mph N/A   Mostly Cloudy
10:55 AM 48.2 °F - 18.5 °F 31% 29.96 in 10.0 mi NNE 23.0 mph 31.1 mph N/A   Overcast
11:15 AM 48.7 °F - 19.8 °F 32% 29.97 in 10.0 mi North 20.7 mph 26.5 mph N/A   Overcast
11:35 AM 49.1 °F - 19.6 °F 31% 29.96 in 10.0 mi North 16.1 mph 24.2 mph N/A   Overcast
11:55 AM 49.1 °F - 18.3 °F 30% 29.95 in 10.0 mi North 20.7 mph 25.3 mph N/A   Overcast
12:15 PM 49.3 °F - 16.2 °F 27% 29.95 in 10.0 mi North 25.3 mph 31.1 mph N/A   Overcast
12:35 PM 50.0 °F - 14.5 °F 24% 29.94 in 10.0 mi NNE 21.9 mph 26.5 mph N/A   Overcast
12:55 PM 50.0 °F - 14.5 °F 24% 29.94 in 10.0 mi North 18.4 mph 24.2 mph N/A   Overcast
1:15 PM 50.5 °F - 13.5 °F 23% 29.93 in 10.0 mi North 17.3 mph 24.2 mph N/A   Overcast
1:35 PM 50.2 °F - 14.0 °F 24% 29.93 in 10.0 mi North 16.1 mph 24.2 mph N/A   Overcast
1:55 PM 50.4 °F - 12.2 °F 22% 29.94 in 10.0 mi North 19.6 mph 23.0 mph N/A   Overcast
2:15 PM 50.0 °F - 13.1 °F 23% 29.95 in 10.0 mi North 17.3 mph 21.9 mph N/A   Overcast
2:35 PM 49.6 °F - 12.6 °F 23% 29.94 in 10.0 mi North 19.6 mph - N/A   Overcast
2:55 PM 49.3 °F - 13.3 °F 24% 29.93 in 10.0 mi North 18.4 mph - N/A   Overcast
3:15 PM 49.3 °F - 13.6 °F 24% 29.93 in 10.0 mi North 20.7 mph 25.3 mph N/A   Overcast
3:35 PM 49.1 °F - 12.4 °F 23% 29.94 in 10.0 mi North 19.6 mph - N/A   Overcast
3:55 PM 48.9 °F - 11.8 °F 23% 29.93 in 10.0 mi North 17.3 mph 25.3 mph N/A   Overcast
4:15 PM 48.6 °F - 12.0 °F 23% 29.94 in 10.0 mi North 17.3 mph - N/A   Overcast
4:35 PM 47.8 °F - 13.8 °F 26% 29.95 in 10.0 mi North 18.4 mph 24.2 mph N/A   Overcast
4:55 PM 46.9 °F - 15.8 °F 29% 29.95 in 10.0 mi North 13.8 mph - N/A   Overcast
5:15 PM 46.4 °F 40.1 °F 15.3 °F 29% 29.95 in 10.0 mi North 15.0 mph - N/A   Overcast
5:35 PM 45.7 °F 40.6 °F 16.0 °F 30% 29.96 in 10.0 mi North 10.4 mph - N/A   Overcast
5:55 PM 45.5 °F 39.6 °F 16.3 °F 31% 29.96 in 10.0 mi North 12.7 mph - N/A   Overcast
6:15 PM 44.8 °F 38.3 °F 16.9 °F 33% 29.97 in 10.0 mi North 13.8 mph - N/A   Overcast
6:35 PM 43.9 °F 39.3 °F 17.6 °F 35% 29.97 in 10.0 mi NNE 8.1 mph - N/A   Overcast
6:55 PM 43.7 °F 40.3 °F 17.6 °F 35% 29.97 in 10.0 mi NE 5.8 mph - N/A   Overcast
7:15 PM 42.8 °F 38.6 °F 18.1 °F 37% 29.98 in 10.0 mi NNE 6.9 mph - N/A   Overcast
7:35 PM 42.4 °F 39.6 °F 18.5 °F 38% 29.99 in 10.0 mi North 4.6 mph - N/A   Overcast
7:55 PM 41.5 °F 37.1 °F 19.2 °F 41% 29.99 in 10.0 mi North 6.9 mph - N/A   Overcast
8:35 PM 41.0 °F 37.1 °F 19.9 °F 43% 29.98 in 10.0 mi ENE 5.8 mph - N/A   Overcast
8:55 PM 40.5 °F 36.5 °F 20.8 °F 46% 29.98 in 10.0 mi NE 5.8 mph - N/A   Overcast
9:15 PM 39.4 °F 35.2 °F 21.0 °F 48% 29.99 in 10.0 mi NNE 5.8 mph - N/A   Overcast
9:35 PM 38.7 °F 35.2 °F 20.8 °F 49% 30.00 in 10.0 mi NNE 4.6 mph - N/A   Overcast
9:55 PM 36.0 °F 31.1 °F 20.3 °F 53% 30.00 in 10.0 mi NNE 5.8 mph - N/A   Mostly Cloudy
10:15 PM 36.7 °F 32.9 °F 20.5 °F 52% 30.01 in 10.0 mi NNE 4.6 mph - N/A   Overcast
10:35 PM 35.6 °F 30.7 °F 21.0 °F 55% 30.01 in 10.0 mi NNE 5.8 mph - N/A   Overcast
10:55 PM 35.8 °F 30.1 °F 21.7 °F 57% 30.00 in 10.0 mi NNE 6.9 mph - N/A   Overcast
11:15 PM 35.6 °F 30.7 °F 22.5 °F 59% 30.01 in 10.0 mi North 5.8 mph - N/A   Overcast
11:35 PM 35.8 °F 31.9 °F 22.3 °F 58% 30.01 in 10.0 mi North 4.6 mph - N/A   Overcast
11:55 PM 35.6 °F 31.7 °F 23.0 °F 60% 30.00 in 10.0 mi NNE 4.6 mph - N/A   Overcast